カタログに戻る

KUIPER-00505

運用中通信LEO
NORAD 68886·PAYLOAD·🇺🇸 United States

打ち上げ Apr 28, 2026 から Cape Canaveral Space Force Station

Loading…

次のパス (今後24時間)

TLE

最新Source: CelesTrak SupGP

元期: Sep 14, 2026, 22:15 UTC

1 68886C 26095Y   26257.92754630 -.00001906  00000+0 -24949-3 0  2571
2 68886  51.9007 208.8370 0000640  84.9111 146.4164 14.79931303    19

AllMySatでKUIPER-00505をリアルタイム追跡

Download on the App Store